Beckley, WV

4:17 AM EDT on May 25, 2017 (GMT -0400)
Raleigh County Memorial

Weather History for KBKW - January, 2013

Change the Weather History Date:

Sunday, January 6, 2013

  Actual Average Record
Temperature  
Mean Temperature 35 °F 31 °F  
Max Temperature 37 °F 39 °F 71 °F (1917)
Min Temperature 32 °F 23 °F -10 °F (1924)
Degree Days  
Heating Degree Days 30 34  
Month to date heating degree days 213 204  
Since 1 July heating degree days 2235 2297  
Cooling Degree Days 0 0  
Month to date cooling degree days 0 0  
Year to date cooling degree days 0 0  
Moisture  
Dew Point 26 °F    
Average Humidity 71    
Maximum Humidity 82    
Minimum Humidity 59    
Precipitation  
Precipitation T in 0.09 in 2.10 in (1995)
Month to date precipitation 0.14 0.55  
Year to date precipitation 0.14 0.55  
Snow  
Snow 0.00 in - - ()
Month to date snowfall 0.2  
Since 1 September snowfall 38.4  
Snow Depth 0.00 in    
Sea Level Pressure  
Sea Level Pressure 30.15 in    
Wind  
Wind Speed 7 mph (WSW)    
Max Wind Speed 18 mph    
Max Gust Speed 25 mph    
Visibility 10 miles    
Events Rain    
T = Trace of Precipitation, MM = Missing Value Source: NWS Daily Summary

Daily Weather History Graph

Daily Weather History Graph

Search for Another Location

Airport or City:

Trip Planner

Search our weather history database for the weather conditions in past years. The results will help you decide how hot, cold, wet, or windy it might be!

Date:

Astronomy

Jan. 06, 2013 Rise Set
Actual Time 7:40 AM EST 5:20 PM EST
Civil Twilight 7:11 AM EST 5:50 PM EST
Nautical Twilight 6:38 AM EST 6:22 PM EST
Astronomical Twilight 6:06 AM EST 6:54 PM EST
Moon 1:55 AM EST (1/6) 12:45 PM EST (1/6)
Length of Visible Light 10h 38m
Length of Day
9h 40m
Waning Crescent, 33% of the Moon is Illuminated
Jan 6
Waning Crescent
Jan 11
New
Jan 18
First Quarter
Jan 26
Full
Feb 3
Last Quarter

Hourly Weather History & Observations

Time (EST) Temp. Windchill Dew Point Humidity Pressure Visibility Wind Dir Wind Speed Gust Speed Precip Events Conditions
12:51 AM 34.0 °F 29.8 °F 24.1 °F 67% 30.22 in 10.0 mi WSW 4.6 mph - N/A   Overcast
1:51 AM 33.1 °F - 24.1 °F 70% 30.19 in 10.0 mi Calm Calm - N/A   Overcast
2:51 AM 33.1 °F 30.0 °F 24.1 °F 70% 30.19 in 10.0 mi SW 3.5 mph - N/A   Overcast
3:51 AM 33.1 °F 30.0 °F 24.1 °F 70% 30.18 in 10.0 mi SW 3.5 mph - N/A   Overcast
4:51 AM 33.1 °F 30.0 °F 25.0 °F 72% 30.17 in 10.0 mi SW 3.5 mph - N/A   Overcast
5:51 AM 33.1 °F 30.0 °F 26.1 °F 75% 30.16 in 10.0 mi SW 3.5 mph - N/A   Overcast
6:51 AM 33.1 °F 27.7 °F 26.1 °F 75% 30.17 in 10.0 mi SW 5.8 mph - N/A   Overcast
7:36 AM 33.8 °F 30.8 °F 26.6 °F 75% 30.10 in 10.0 mi SW 3.5 mph - N/A   Overcast
7:51 AM 33.1 °F 28.7 °F 26.1 °F 75% 30.17 in 10.0 mi SW 4.6 mph - N/A   Overcast
7:58 AM 33.8 °F 29.6 °F 24.8 °F 70% 30.10 in 10.0 mi SW 4.6 mph - N/A   Overcast
8:51 AM 33.1 °F 28.7 °F 26.1 °F 75% 30.19 in 10.0 mi SW 4.6 mph - N/A   Overcast
9:51 AM 34.0 °F 28.8 °F 26.1 °F 73% 30.18 in 10.0 mi WSW 5.8 mph - N/A   Overcast
10:51 AM 35.1 °F 26.4 °F 26.1 °F 70% 30.18 in 10.0 mi West 12.7 mph - N/A   Overcast
11:51 AM 35.1 °F 27.4 °F 27.0 °F 72% 30.15 in 10.0 mi West 10.4 mph - N/A   Overcast
12:51 PM 36.0 °F 29.6 °F 26.1 °F 67% 30.12 in 10.0 mi WSW 8.1 mph 17.3 mph N/A   Overcast
1:23 PM 35.6 °F 28.6 °F 26.6 °F 70% 30.04 in 10.0 mi WSW 9.2 mph - N/A   Overcast
1:42 PM 35.6 °F 27.5 °F 26.6 °F 70% 30.03 in 10.0 mi SW 11.5 mph - N/A   Overcast
1:51 PM 36.0 °F 28.5 °F 26.1 °F 67% 30.10 in 10.0 mi SW 10.4 mph 17.3 mph N/A   Overcast
2:51 PM 36.0 °F 31.1 °F 25.0 °F 64% 30.10 in 10.0 mi WSW 5.8 mph - N/A   Overcast
3:51 PM 37.4 °F 30.8 °F 24.8 °F 60% 30.03 in 10.0 mi WSW 9.2 mph - N/A   Overcast
4:51 PM 36.0 °F 27.5 °F 26.1 °F 67% 30.12 in 10.0 mi West 12.7 mph - N/A   Overcast
5:51 PM 35.6 °F 29.9 °F 26.6 °F 70% 30.07 in 10.0 mi West 6.9 mph - N/A   Overcast
6:51 PM 36.0 °F 30.3 °F 26.1 °F 67% 30.15 in 10.0 mi West 6.9 mph - N/A   Overcast
7:51 PM 36.0 °F 31.1 °F 26.1 °F 67% 30.16 in 10.0 mi West 5.8 mph - N/A   Overcast
8:51 PM 36.0 °F 29.6 °F 26.1 °F 67% 30.17 in 10.0 mi West 8.1 mph - N/A   Overcast
9:33 PM 35.6 °F 26.6 °F 28.4 °F 75% 30.12 in 10.0 mi NW 13.8 mph 20.7 mph 0.00 in Rain Light Rain
9:51 PM 34.0 °F 25.5 °F 28.0 °F 79% 30.22 in 10.0 mi WNW 11.5 mph 19.6 mph 0.00 in   Overcast
10:51 PM 34.0 °F 24.6 °F 25.0 °F 70% 30.24 in 10.0 mi WNW 13.8 mph 23.0 mph N/A   Overcast
11:02 PM 33.8 °F 24.8 °F 24.8 °F 70% 30.17 in 10.0 mi WNW 12.7 mph 19.6 mph N/A   Overcast
11:51 PM 33.1 °F 23.9 °F 25.0 °F 72% 30.26 in 10.0 mi WNW 12.7 mph - N/A   Overcast